CAPE
11 12 11 10 11 12 11 9 10 7 5 4 3 2 1 1 2 2 0 0 0 0 0 1 3 6 0 0 0 0 0 0 0 0 0 0 0 0 0 0 0 0 0 0 0 0 0
11 12 12 12 15 16 18 18 14 10 7 5 4 2 5 3 2 0 0 0 0 0 0 1 4 5 0 0 0 0 0 0 0 0 0 0 0 0 0 0 0 0 0 0 0 0 0
13 15 19 19 17 17 19 17 16 11 6 4 2 4 6 5 3 1 0 0 0 0 0 1 3 3 0 0 0 0 0 0 0 0 0 0 0 0 0 0 0 0 0 0 0 0 0
11 15 16 15 17 16 19 16 16 8 4 2 1 8 8 4 1 1 0 0 0 0 0 0 0 0 0 0 0 0 0 0 0 0 0 0 0 0 0 0 0 0 0 0 0 0 0
10 15 15 16 13 14 18 15 11 5 3 3 5 9 7 3 1 0 0 0 0 0 0 0 0 0 0 0 0 0 0 0 0 0 0 0 0 0 0 0 0 0 0 0 0 0 0
10 11 14 15 14 14 14 11 10 5 6 10 10 10 8 1 0 0 0 0 0 0 0 0 0 0 0 0 0 0 0 0 0 0 0 0 0 0 0 0 0 0 0 0 0 0 0
10 8 12 13 13 11 11 9 7 17 17 11 8 9 7 0 0 0 0 0 0 0 0 0 0 0 0 0 0 0 0 0 0 0 0 0 0 0 0 0 0 0 0 0 0 0 0
8 8 12 14 14 12 11 9 11 17 14 9 14 11 2 0 0 0 0 0 0 0 0 0 0 0 0 0 0 0 0 0 0 0 0 0 0 0 0 0 0 0 0 0 0 0 0
8 9 14 16 16 11 10 7 16 15 16 13 13 9 0 0 0 0 0 0 0 3 0 0 4 20 25 3 0 0 0 0 0 0 0 0 0 0 0 0 0 0 0 0 0 0 0
8 10 15 15 13 9 7 4 7 14 12 11 9 3 0 0 0 0 0 0 0 2 2 10 28 19 34 67 0 0 0 0 0 0 0 0 0 0 0 0 0 0 0 0 0 0 0
11 13 14 12 12 10 12 11 12 11 9 8 4 0 0 0 0 0 0 0 0 3 21 0 6 10 0 147 44 31 0 0 1 0 0 0 0 0 0 0 0 0 0 0 0 0 0
12 9 13 12 13 22 17 12 11 7 4 4 1 0 0 0 0 0 0 0 5 72 21 1 5 37 0 0 6 0 0 0 6 1 0 0 0 0 0 0 0 0 0 0 0 0 0
13 16 15 13 12 17 15 11 7 4 2 2 0 0 0 0 0 0 0 22 67 14 9 11 21 45 2 5 14 0 16 2 0 2 3 0 0 0 0 0 0 0 0 0 0 0 0
10 16 17 14 9 17 18 11 6 4 1 0 0 0 0 0 0 0 30 22 8 3 7 5 9 32 8 7 6 10 1 1 0 0 0 7 0 0 0 0 0 0 0 0 0 0 0
11 18 17 12 9 9 19 12 5 4 0 0 0 0 0 0 0 1 33 32 9 3 0 0 5 21 16 1 14 23 5 10 5 5 1 0 9 0 0 0 0 0 0 0 0 0 1
13 19 21 13 8 10 18 9 5 4 0 0 0 0 0 0 11 35 1 0 6 1 0 0 6 10 23 13 10 19 8 11 9 4 2 0 0 15 0 0 0 0 0 1 41 2 0
16 21 23 9 6 13 19 9 3 1 0 0 0 0 0 0 22 0 31 3 1 0 0 0 4 8 11 13 18 18 18 10 1 5 3 1 0 4 37 0 0 0 0 0 0 8 14
17 21 26 4 5 8 9 4 5 1 0 0 0 5 0 0 1 11 12 0 0 0 0 1 3 5 8 11 12 10 1 2 0 7 12 13 4 0 4 1 0 4 0 0 33 8 3
18 21 31 3 4 10 8 3 3 0 0 0 0 0 0 0 20 96 3 0 0 0 1 0 4 3 9 18 4 9 2 0 0 0 2 4 11 0 7 9 0 0 13 0 7 30 27
21 20 33 14 12 14 10 3 1 0 0 0 1 16 0 0 0 1 0 0 0 0 0 2 5 2 1 6 17 9 5 0 0 0 0 0 18 18 9 9 15 0 0 0 0 12 1
23 20 32 21 18 24 19 1 3 0 0 0 2 16 1 129 50 5 2 2 0 2 0 8 1 4 2 3 8 17 10 0 0 0 0 0 0 6 4 2 1 12 1 0 0 0 39
22 16 25 35 27 23 28 23 3 0 0 6 32 18 5 23 2 10 12 9 3 3 12 3 6 8 8 8 15 18 10 6 1 0 0 1 0 0 0 0 0 1 0 0 0 0 0
28 21 26 36 24 22 26 29 27 4 10 30 20 19 32 13 9 16 17 12 11 15 9 20 21 19 14 14 11 11 12 10 4 1 0 0 0 0 0 0 0 0 0 0 0 0 0
20 29 29 34 26 26 24 27 37 34 3 40 17 37 56 29 18 18 13 11 15 20 23 18 25 27 15 13 14 7 5 6 7 1 2 1 2 0 0 0 0 0 0 0 0 0 0
21 30 40 28 22 25 23 26 33 40 30 69 30 43 68 49 16 19 20 22 28 28 29 31 27 16 25 29 32 13 8 5 4 5 1 2 4 4 4 1 0 0 0 0 0 0 0
11 28 32 21 23 26 25 29 34 36 42 79 77 39 122 101 18 14 18 26 31 38 42 41 22 48 47 30 41 50 34 20 6 9 4 6 11 24 21 13 3 0 0 0 0 0 4
30 30 22 24 27 28 30 36 37 41 46 99 68 72 17 108 50 34 69 63 52 58 75 47 46 58 41 62 77 72 55 28 26 22 23 23 24 33 36 33 11 2 0 0 0 12 6
30 24 28 24 35 33 38 42 40 37 26 102 86 92 51 31 25 27 45 55 72 80 131 66 74 68 51 63 69 77 50 46 38 25 20 26 50 50 43 55 30 8 0 0 26 3 4
43 43 51 38 39 34 41 38 36 22 28 17 109 105 115 36 22 34 25 32 58 63 145 139 108 94 77 105 78 71 59 53 57 75 21 39 30 101 64 56 20 8 0 0 10 19 2
CIN
-0 -0 -0 -0 -0 -0 -0 -0 -0 -0 -0 -0 -0 -0 -0 -0 -0 -0 -0 -0 -0 -0 -0 -0 -0 -0 -0 -0 -0 -0 -0 -0 -0 -0 -0 -0 -0 -0 -0 -0 -0 -0 -0 -0 -0 -0 -0
-0 -0 -0 -0 -0 -0 -0 -0 -0 -0 -0 -0 -0 -0 -0 -0 -0 -0 -0 -0 -0 -0 -0 -0 -0 -0 -0 -0 -0 -0 -0 -0 -0 -0 -0 -0 -0 -0 -0 -0 -0 -0 -0 -0 -0 -0 -0
-0 -0 -0 -0 -0 -0 -0 -0 -0 -0 -0 -0 -0 -0 -0 -0 -0 -0 -0 -0 -0 -0 -0 -0 -0 -0 -0 -0 -0 -0 -0 -0 -0 -0 -0 -0 -0 -0 -0 -0 -0 -0 -0 -0 -0 -0 -0
-0 -0 -0 -0 -0 -0 -0 -0 -0 -0 -0 -0 -0 -0 -0 -0 -0 -0 -0 -0 -0 -0 -0 -0 -0 -0 -0 -0 -0 -0 -0 -0 -0 -0 -0 -0 -0 -0 -0 -0 -0 -0 -0 -0 -0 -0 -0
-0 -0 -0 -0 -0 -0 -0 -0 -0 -0 -0 -0 -0 -0 -0 -0 -0 -0 -0 -0 -0 -0 -0 -0 -0 -0 -0 -0 -0 -0 -0 -0 -0 -0 -0 -0 -0 -0 -0 -0 -0 -0 -0 -0 -0 -0 -0
-0 -0 -0 -0 -0 -0 -0 -0 -0 -0 -0 -0 -0 -0 -0 -0 -0 -0 -0 -0 -0 -0 -0 -0 -0 -0 -0 -0 -0 -0 -0 -0 -0 -0 -0 -0 -0 -0 -0 -0 -0 -0 -0 -0 -0 -0 -0
-0 -0 -0 -0 -0 -0 -0 -0 -0 -0 -0 -0 -0 -0 -0 -0 -0 -0 -0 -0 -0 -0 -0 -0 -0 -0 -0 -0 -0 -0 -0 -0 -0 -0 -0 -0 -0 -0 -0 -0 -0 -0 -0 -0 -0 -0 -0
-0 -0 -0 -0 -0 -0 -0 -0 -0 -0 -0 -0 -0 -0 -0 -0 -0 -0 -0 -0 -0 -0 -0 -0 -0 -0 -0 -0 -0 -0 -0 -0 -0 -0 -0 -0 -0 -0 -0 -0 -0 -0 -0 -0 -0 -0 -0
-0 -0 -0 -0 -0 -0 -0 -0 -0 -0 -0 -0 -0 -0 -0 -0 -0 -0 -0 -0 -0 -0 -0 -0 -10 -6 -1 -1 -0 -0 -0 -0 -0 -0 -0 -0 -0 -0 -0 -0 -0 -0 -0 -0 -0 -0 -0
-0 -0 -0 -0 -0 -0 -0 -0 -0 -0 -0 -0 -0 -0 -0 -0 -0 -0 -0 -0 -0 -0 -0 -0 -1 -2 -6 -7 -0 -0 -0 -0 -0 -0 -0 -0 -0 -0 -0 -0 -0 -0 -0 -0 -0 -0 -0
-0 -0 -0 -0 -0 -0 -0 -0 -0 -0 -0 -0 -0 -0 -0 -0 -0 -0 -0 -0 -0 -0 -0 -0 -0 -0 -3 -0 -1 -1 -0 -0 -0 -0 -0 -0 -0 -0 -0 -0 -0 -0 -0 -0 -0 -0 -0
-0 -0 -0 -0 -0 -0 -0 -0 -0 -0 -0 -0 -0 -0 -0 -0 -0 -0 -0 -0 -0 -0 -0 -0 -0 -0 -0 -0 -1 -0 -0 -0 -0 -0 -0 -0 -0 -0 -0 -0 -0 -0 -0 -0 -0 -0 -0
-0 -0 -0 -0 -0 -0 -0 -0 -0 -0 -0 -0 -0 -0 -0 -0 -0 -0 -0 -0 -0 -0 -0 -0 -0 -5 -0 -0 -0 -0 -4 -6 -3 -1 -0 -0 -0 -0 -0 -0 -0 -0 -0 -0 -0 -0 -0
-0 -0 -0 -0 -0 -0 -0 -0 -0 -0 -0 -0 -0 -0 -0 -0 -0 -0 -16 -0 -0 -0 -0 -0 -0 -0 -0 -0 -0 -0 -0 -0 -0 -0 -0 -0 -0 -0 -0 -0 -0 -0 -0 -0 -0 -0 -0
-0 -0 -0 -0 -0 -0 -0 -0 -0 -0 -0 -0 -0 -0 -0 -0 -0 -2 -0 -0 -0 -0 -0 -0 -0 -0 -0 -0 -0 -0 -0 -0 -0 -0 -0 -0 -1 -0 -0 -0 -0 -0 -0 -0 -0 -0 -0
-0 -0 -0 -0 -0 -0 -0 -0 -0 -0 -0 -0 -0 -0 -0 -0 -17 -4 -0 -0 -0 -0 -0 -0 -0 -0 -0 -0 -0 -0 -0 -0 -0 -0 -0 -0 -0 -5 -0 -0 -0 -0 -0 -0 -0 -0 -0
-0 -0 -0 -0 -0 -0 -0 -0 -0 -0 -0 -0 -0 -0 -0 -0 -6 -0 -0 -0 -0 -0 -0 -0 -0 -0 -0 -0 -0 -0 -0 -0 -0 -0 -0 -0 -0 -1 -1 -0 -0 -0 -0 -0 -0 -0 -0
-0 -0 -0 -0 -0 -0 -0 -0 -0 -0 -0 -0 -0 -0 -0 -0 -0 -0 -0 -0 -0 -0 -0 -0 -0 -0 -0 -0 -0 -0 -0 -0 -0 -0 -0 -0 -0 -0 -0 -0 -0 -15 -0 -0 -0 -0 -0
-0 -0 -0 -0 -0 -0 -0 -0 -0 -0 -0 -0 -0 -0 -0 -0 -0 -0 -0 -0 -0 -0 -0 -0 -0 -0 -0 -0 -0 -0 -0 -0 -0 -0 -0 -0 -0 -0 -0 -0 -0 -0 -4 -0 -23 -0 -0
-0 -0 -0 -0 -0 -0 -0 -0 -0 -0 -0 -0 -0 -0 -0 -0 -0 -0 -0 -0 -0 -0 -0 -0 -0 -0 -0 -0 -0 -0 -0 -0 -0 -0 -0 -0 -0 -0 -0 -0 -0 -0 -0 -0 -0 -3 -0
-0 -0 -0 -0 -0 -0 -0 -0 -0 -0 -0 -0 -0 -0 -0 -0 -0 -0 -0 -0 -0 -0 -0 -0 -0 -0 -0 -0 -0 -0 -0 -0 -0 -0 -0 -0 -0 -0 -0 -0 -0 -0 -0 -0 -0 -0 -0
-0 -0 -0 -0 -0 -0 -0 -0 -0 -0 -0 -0 -0 -0 -0 -0 -0 -0 -2 -0 -0 -0 -0 -0 -0 -0 -0 -0 -0 -0 -0 -0 -0 -0 -0 -0 -0 -0 -0 -0 -0 -0 -0 -0 -0 -0 -0
-0 -0 -0 -0 -0 -0 -0 -0 -0 -0 -20 -0 -0 -0 -0 -0 -0 -0 -0 -0 -0 -0 -0 -0 -0 -0 -0 -0 -0 -0 -0 -0 -0 -0 -0 -0 -0 -0 -0 -0 -0 -0 -0 -0 -0 -0 -0
-0 -0 -0 -0 -0 -0 -0 -0 -0 -0 -5 -0 -0 -0 -0 -0 -0 -0 -0 -0 -0 -0 -0 -0 -0 -0 -0 -0 -0 -0 -0 -0 -0 -0 -0 -0 -0 -0 -0 -0 -0 -0 -0 -0 -0 -0 -0
-0 -0 -0 -0 -0 -0 -0 -0 -0 -0 -0 -0 -0 -0 -0 -0 -0 -0 -0 -0 -0 -0 -0 -0 -0 -0 -0 -0 -0 -0 -0 -0 -0 -0 -0 -0 -0 -0 -0 -0 -0 -0 -0 -0 -0 -0 -0
-0 -0 -0 -0 -0 -0 -0 -0 -0 -0 -0 -0 -0 -0 -0 -0 -0 -0 -0 -0 -0 -0 -0 -0 -0 -0 -0 -0 -0 -0 -0 -0 -0 -0 -0 -0 -0 -0 -0 -0 -0 -0 -0 -0 -0 -0 -0
-0 -0 -0 -0 -0 -0 -0 -0 -0 -0 -0 -0 -0 -0 -0 -0 -0 -0 -0 -0 -0 -0 -0 -0 -0 -0 -0 -0 -0 -0 -0 -0 -0 -0 -0 -0 -0 -0 -0 -0 -0 -0 -2 -0 -0 -1 -0
-0 -1 -0 -0 -0 -0 -0 -0 -0 -0 -0 -0 -0 -0 -0 -0 -0 -0 -0 -0 -0 -0 -0 -0 -0 -0 -0 -0 -0 -0 -0 -0 -0 -0 -0 -0 -0 -0 -0 -0 -0 -1 -0 -0 -2 -0 -0
-0 -0 -0 -0 -0 -0 -0 -0 -0 -0 -0 -0 -0 -0 -0 -0 -0 -0 -0 -0 -0 -0 -0 -0 -0 -0 -0 -0 -0 -0 -0 -0 -0 -0 -0 -0 -0 -0 -0 -0 -1 -1 -0 -0 -0 -1 -1
Wind_Speed
23 24 24 24 25 25 25 25 26 26 27 27 28 29 30 30 29 27 26 25 23 23 22 20 16 12 10 11 20 5 11 8 13 19 24 24 24 22 24 22 22 23 24 24 22 24 18
23 23 23 24 24 24 24 25 26 26 27 27 28 29 29 30 30 29 27 24 23 23 22 19 13 8 12 19 9 8 7 11 14 21 21 23 19 22 20 24 20 21 21 21 23 24 17
22 23 23 23 24 24 25 25 26 28 28 28 29 29 30 30 29 28 27 25 23 22 15 12 8 11 16 24 9 7 8 15 16 19 20 20 19 17 19 14 22 18 18 17 26 20 24
22 23 23 24 24 25 26 27 27 29 30 31 31 30 29 29 29 28 26 24 20 12 9 6 8 10 11 6 10 17 16 14 19 18 20 15 15 16 20 15 8 22 20 21 22 24 18
22 23 24 24 25 26 26 27 28 30 31 31 31 31 31 29 27 27 27 27 16 4 2 4 9 9 12 3 10 12 17 20 17 17 18 12 14 19 20 19 15 17 18 26 23 26 22
23 23 25 25 26 27 28 28 28 30 30 30 31 31 31 29 26 25 24 29 5 5 11 8 8 9 11 8 12 16 14 20 18 20 20 18 14 18 19 19 21 23 23 20 23 21 24
23 24 25 26 27 28 29 30 30 29 29 30 31 31 31 29 25 26 20 10 10 5 19 13 23 26 30 28 25 17 16 17 24 22 27 25 21 25 30 27 25 21 21 23 18 14 23
23 24 25 26 27 29 30 30 30 29 30 31 31 31 30 28 26 22 13 15 14 10 15 21 22 18 17 14 21 21 23 16 25 28 27 22 30 30 26 26 27 27 17 18 16 14 10
23 24 25 26 27 29 30 31 30 30 30 31 31 31 30 27 24 13 8 18 12 10 9 14 10 11 13 12 16 24 25 21 23 28 30 31 27 26 26 28 27 26 21 20 18 13 12
22 23 24 25 26 29 30 32 32 31 31 32 32 30 23 26 7 13 11 18 12 5 8 14 18 12 25 38 13 14 24 21 26 31 31 31 28 23 28 27 24 25 21 19 15 12 15
22 23 23 25 26 27 28 30 31 32 33 33 32 27 21 15 10 11 16 14 9 2 6 18 20 20 28 24 18 12 9 20 23 26 20 29 30 25 26 26 23 21 20 19 18 16 16
21 22 23 25 26 26 28 30 31 32 33 34 31 23 21 6 9 15 16 13 2 5 5 17 24 24 24 23 20 16 6 9 11 24 22 28 21 23 21 20 21 20 18 14 18 14 16
21 21 23 25 26 26 27 29 32 33 33 34 31 20 15 9 13 19 13 8 3 7 19 21 29 18 19 22 21 23 6 18 17 9 21 23 30 18 15 21 25 23 18 12 14 15 15
19 21 22 24 26 26 27 29 31 33 34 34 31 21 13 9 15 14 11 5 8 16 18 21 20 14 17 20 14 26 14 13 21 25 13 14 20 21 21 27 22 26 23 15 21 18 17
19 20 22 23 25 26 26 28 30 32 34 34 30 6 14 15 19 12 6 9 8 13 18 20 19 15 14 19 9 12 16 18 16 21 12 11 16 24 18 22 25 21 25 28 19 19 17
19 20 21 22 23 25 25 27 29 31 34 33 10 6 16 21 20 8 7 9 9 13 16 16 16 13 16 19 15 13 16 17 17 20 16 11 12 17 19 10 21 23 22 22 19 18 20
19 19 20 20 22 23 24 25 29 31 33 33 6 4 15 21 10 9 9 8 8 14 16 12 15 14 16 17 13 11 12 7 17 19 15 15 8 13 11 16 18 17 13 22 22 15 15
18 18 20 19 20 22 23 25 26 28 33 12 7 4 12 13 11 7 8 9 5 14 15 13 13 12 15 14 8 9 11 11 11 11 11 10 7 8 13 6 14 15 19 23 16 21 18
17 18 18 17 19 20 21 23 25 27 26 10 6 4 7 9 7 6 7 10 6 12 12 13 12 12 17 12 7 10 12 9 14 9 9 9 5 8 11 8 7 9 5 15 15 20 20
16 17 17 16 18 19 19 21 23 26 27 13 5 5 5 8 8 11 11 9 11 7 10 11 7 15 15 15 11 10 12 13 14 8 3 2 5 7 7 12 15 15 12 11 11 12 15
15 15 16 15 16 18 17 19 21 23 25 11 7 4 5 4 6 11 10 10 12 14 10 8 9 16 18 16 13 8 15 17 18 9 5 7 7 9 9 16 12 17 17 14 13 16 17
15 14 16 15 15 16 15 16 18 20 27 4 3 5 9 8 9 10 6 9 12 13 14 11 13 18 18 16 15 17 19 16 10 11 16 9 8 11 15 11 11 15 17 16 15 13 11
16 15 15 15 15 15 15 14 15 15 18 6 6 4 6 10 7 8 8 13 15 14 6 13 17 17 17 15 16 18 18 18 18 20 17 15 7 9 10 1 9 14 14 15 13 9 8
15 15 16 15 15 15 14 13 13 12 10 5 2 4 4 7 10 12 17 13 15 15 17 17 15 16 15 17 18 20 20 19 18 18 16 15 12 7 9 10 8 3 3 3 8 12 3
15 16 17 15 14 14 14 14 13 12 9 6 2 2 3 7 11 14 13 16 20 17 16 17 15 10 12 14 17 17 14 15 12 12 11 13 12 9 5 8 14 17 5 2 5 10 8
16 15 16 14 14 14 14 14 13 13 12 8 4 4 3 5 9 20 19 17 15 16 16 17 13 12 12 11 11 12 13 17 9 5 7 8 10 12 12 11 7 8 7 3 3 9 12
15 15 15 15 15 14 14 14 14 14 13 8 6 5 3 5 13 14 14 17 18 17 15 18 15 12 9 12 13 15 16 17 19 20 18 12 12 14 14 13 14 11 11 3 5 4 4
16 15 15 15 15 14 14 14 14 14 14 9 9 8 4 4 10 20 19 19 17 16 17 17 15 13 11 9 12 13 11 13 16 16 16 17 13 12 15 18 19 10 6 5 7 3 2
15 14 14 14 14 14 14 14 14 13 14 8 10 7 6 6 10 21 25 25 23 26 17 13 17 22 7 6 7 7 14 14 20 16 18 16 15 13 13 7 5 7 8 3 3 1 4
Wind_Direction
25 22 19 15 12 9 7 3 359 358 354 351 349 347 344 341 337 334 328 322 319 315 307 299 293 288 270 236 250 247 118 147 188 207 216 216 215 220 223 230 232 229 238 245 247 261 194
22 19 16 11 9 6 3 1 357 355 353 350 348 346 343 340 336 332 327 320 318 313 308 298 278 249 243 254 272 300 262 183 191 202 213 217 217 221 233 239 235 230 236 249 247 241 240
19 15 14 10 6 4 1 0 357 354 352 350 349 346 344 340 336 330 324 319 318 316 310 301 246 218 250 246 319 316 245 233 224 212 217 216 223 233 231 250 246 247 233 243 244 231 237
16 13 11 9 5 2 0 0 356 354 352 351 349 346 343 340 336 331 321 313 319 325 328 314 200 215 258 266 276 252 252 243 238 222 238 220 236 250 234 235 248 226 240 241 226 229 222
14 10 9 7 4 1 1 359 357 355 352 349 348 345 343 340 336 330 318 309 310 300 339 171 201 245 272 123 237 247 247 235 225 227 230 240 220 229 226 235 225 208 227 224 241 205 216
11 9 7 5 3 1 359 359 358 353 350 348 346 345 340 336 336 325 309 291 172 220 215 220 259 264 249 323 343 302 279 223 233 214 212 211 212 221 225 213 218 212 218 236 216 217 205
10 8 6 3 1 360 358 357 355 350 348 347 345 343 338 333 334 322 317 345 2 239 352 279 295 288 295 298 281 299 242 217 223 211 211 203 211 215 213 217 230 234 218 224 235 210 196
9 7 4 2 1 358 357 355 353 349 347 346 344 342 338 328 327 321 315 29 9 305 301 288 272 269 279 284 273 263 269 213 209 214 206 200 221 218 219 220 228 241 248 225 234 185 217
8 5 3 1 360 357 355 353 351 348 346 346 344 342 335 320 320 318 351 16 349 333 273 317 11 318 324 298 296 262 260 214 215 219 209 218 216 218 223 228 222 228 223 233 231 189 210
7 3 3 360 358 356 353 351 350 347 346 346 345 342 333 319 298 331 27 349 344 331 275 12 22 11 331 311 267 259 249 235 230 220 227 222 225 207 221 224 217 224 215 237 226 215 218
5 3 359 358 358 355 350 349 348 347 346 346 347 343 328 323 321 342 337 333 332 257 323 338 356 356 340 328 343 22 240 237 234 228 222 227 224 208 219 218 221 230 210 220 234 234 241
4 0 359 357 356 355 352 348 347 347 347 345 345 341 323 8 327 345 328 316 273 255 351 335 349 6 5 347 334 324 232 248 272 245 243 242 220 239 220 225 223 220 237 200 232 230 230
3 358 358 356 354 355 352 349 347 346 346 345 340 334 318 344 335 320 316 270 296 33 345 350 344 13 19 346 341 349 83 59 24 294 243 223 234 211 213 220 214 213 213 197 203 211 226
359 357 357 356 354 354 352 350 347 345 345 345 332 317 8 359 334 326 300 281 40 358 357 342 334 5 29 7 357 348 14 31 31 4 322 235 217 198 220 226 204 204 205 211 203 211 211
356 355 355 356 356 353 351 350 348 346 344 344 317 327 13 346 333 321 307 48 31 349 336 339 343 358 10 18 358 358 7 17 17 9 351 339 254 188 205 222 223 194 216 223 234 233 217
352 352 352 355 355 354 351 350 348 347 343 337 314 304 12 336 323 301 57 59 39 4 335 339 4 9 2 12 9 11 5 31 356 357 334 331 298 289 180 225 229 228 210 220 235 236 219
349 350 350 354 354 354 353 352 349 348 345 327 293 358 1 332 297 34 45 55 357 7 348 6 357 344 350 1 25 13 22 43 6 347 351 350 296 317 285 200 217 216 229 232 242 226 230
345 347 348 354 352 352 353 353 352 349 346 334 337 29 359 321 48 12 34 17 332 355 1 1 7 353 345 357 349 18 6 18 19 13 357 7 310 282 297 360 311 298 225 236 231 214 244
342 344 346 351 350 351 352 354 353 348 350 315 350 351 41 1 32 11 20 15 19 3 11 354 6 353 345 345 342 20 2 27 357 6 14 351 347 302 249 237 238 270 279 325 299 241 229
339 341 344 347 348 349 352 355 355 349 339 325 356 352 345 26 3 358 355 359 2 28 347 351 340 357 349 334 353 305 347 345 334 45 336 30 309 319 319 329 320 307 334 333 308 256 229
338 339 343 339 342 348 356 353 355 348 334 316 7 337 6 348 355 339 12 352 351 2 351 348 335 355 340 326 327 328 340 333 332 139 326 351 277 282 297 303 293 303 303 299 288 261 246
329 332 334 334 336 343 353 354 352 349 331 16 36 350 340 298 316 324 17 341 340 347 332 330 327 334 322 316 333 329 328 318 311 316 320 321 284 297 283 259 279 288 285 280 284 297 297
324 328 331 333 334 337 345 350 350 353 334 22 355 337 296 297 327 328 351 326 320 318 305 321 321 316 314 339 328 310 296 283 276 282 290 289 278 303 288 252 282 279 253 248 260 282 301
319 321 323 325 328 332 336 337 342 351 340 335 2 320 305 309 321 326 319 308 310 313 304 299 296 310 319 324 303 288 278 280 270 258 250 258 267 275 286 295 257 276 142 270 285 296 305
313 316 320 316 319 324 325 327 328 329 328 307 270 252 254 286 309 296 316 309 304 298 296 303 304 303 312 304 293 297 304 282 261 252 239 233 255 264 248 267 293 288 124 305 249 249 244
310 312 313 311 310 314 315 318 319 315 314 298 276 222 261 277 272 325 304 292 292 295 296 289 313 329 295 291 300 285 276 290 279 264 179 231 239 263 256 260 265 87 91 30 290 258 164
303 305 305 303 301 303 306 310 310 308 309 300 282 252 242 254 264 292 299 299 295 293 287 283 283 290 260 275 271 268 274 280 273 267 272 232 222 235 245 256 261 285 127 114 241 46 87
295 297 296 297 296 296 301 303 303 302 304 304 287 261 235 258 277 278 287 297 285 280 275 280 300 275 278 253 262 268 272 276 276 269 268 263 257 241 253 262 262 274 139 239 95 118 103
290 290 293 294 294 295 298 296 297 300 304 292 285 294 271 252 277 291 283 285 280 278 277 276 272 275 257 268 263 300 294 298 287 281 290 273 264 268 266 265 322 11 320 121 145 237 153